Terminal Aerodrome Forecast
Issued by NWS Boise, ID

Home | Current Version | Previous Version | Text Only | Print | Product List | Glossary On
Versions: 1 2 3 4 5 6 7 8 9 10 11 12 13 14 15 16 17 18 19 20 21 22 23 24 25 26 27 28
000
FTUS45 KBOI 221739
TAFBOI
TAF
KBOI 221739Z 2218/2318 33007KT P6SM VCTS FEW080CB BKN120
     FM230000 32011G17KT P6SM SCT100 BKN200
     FM230300 30007KT P6SM SCT100
     FM231700 31011KT P6SM SCT100=

USA.gov is the U.S. government's official web portal to all federal, state and local government web resources and services.